FW8563 Weather Reports


time (UTC)temp
C
wind
direction
speed
KPH
gust
KPH
rain 1hr
cm
rain 24hr
cm
rain mn
cm
humidity
%
barometer
mb
20260503212013 11 150 1.6 4.8 0.00 0.00 0.00 92 1021.0
20260503211513 11 123 0.0 1.6 0.00 0.00 0.00 91 1021.0
20260503211011 11 145 0.0 1.6 0.00 0.00 0.00 90 1021.0
20260503210511 12 83 0.0 1.6 0.00 0.00 0.00 90 1021.0
20260503210011 12 84 0.0 3.2 0.00 0.00 0.00 89 1021.0
20260503205005 12 127 0.0 1.6 0.00 0.00 0.00 89 1021.0
20260503204459 12 98 0.0 1.6 0.00 0.00 0.00 90 1021.1
20260503203954 12 108 0.0 1.6 0.00 0.00 0.00 91 1021.2
20260503203452 12 107 0.0 1.6 0.00 0.00 0.00 91 1021.1
20260503202952 12 135 0.0 0.0 0.00 0.00 0.00 91 1021.3
20260503202451 12 115 0.0 0.0 0.00 0.00 0.00 91 1021.1
20260503201950 12 105 0.0 1.6 0.00 0.00 0.00 90 1021.2
20260503200953 12 117 0.0 1.6 0.00 0.00 0.00 90 1021.1
20260503200452 12 127 0.0 1.6 0.00 0.00 0.00 89 1021.1
20260503194949 12 116 0.0 1.6 0.00 0.00 0.00 88 1020.9
20260503194450 13 153 0.0 1.6 0.00 0.00 0.00 86 1020.9
20260503193950 13 132 0.0 3.2 0.00 0.00 0.00 86 1021.0
20260503193447 13 123 0.0 4.8 0.00 0.00 0.00 85 1020.9
20260503192941 13 196 0.0 4.8 0.00 0.00 0.00 84 1020.8
20260503192437 13 150 0.0 3.2 0.00 0.00 0.00 83 1020.9
20260503191434 14 120 0.0 3.2 0.00 0.00 0.00 78 1020.7
20260503190435 14 203 0.0 3.2 0.00 0.00 0.00 63 1020.5
20260503185933 14 208 0.0 3.2 0.00 0.00 0.00 63 1020.6
20260503185431 15 127 0.0 3.2 0.00 0.00 0.00 63 1020.5
20260503184932 15 138 1.6 9.7 0.00 0.00 0.00 62 1020.3
20260503183932 15 202 3.2 12.9 0.00 0.00 0.00 61 1020.2
20260503183429 15 288 3.2 12.9 0.00 0.00 0.00 61 1020.2
20260503182927 15 232 3.2 11.3 0.00 0.00 0.00 61 1020.1
20260503182427 15 253 1.6 9.7 0.00 0.00 0.00 60 1020.1
20260503181927 15 252 3.2 11.3 0.00 0.00 0.00 60 1020.1
20260503180928 16 262 1.6 12.9 0.00 0.00 0.00 59 1020.0
20260503180428 16 216 3.2 12.9 0.00 0.00 0.00 60 1020.1
20260503175926 16 269 3.2 12.9 0.00 0.00 0.00 59 1020.1
20260503175423 16 244 3.2 11.3 0.00 0.00 0.00 59 1020.1
20260503174924 17 262 3.2 11.3 0.00 0.00 0.00 60 1020.0
20260503174427 17 252 3.2 9.7 0.00 0.00 0.00 58 1020.0
20260503173925 17 258 3.2 9.7 0.00 0.00 0.00 58 1019.9
20260503173424 17 207 3.2 14.5 0.00 0.00 0.00 58 1019.9
20260503172923 17 273 3.2 14.5 0.00 0.00 0.00 58 1019.9
20260503172424 17 211 3.2 14.5 0.00 0.00 0.00 58 1019.9
20260503171925 17 239 4.8 14.5 0.00 0.00 0.00 57 1019.9
20260503170924 17 274 4.8 16.1 0.00 0.00 0.00 58 1019.9
20260503170423 18 261 6.4 16.1 0.00 0.00 0.00 57 1019.9
20260503150900 20 270 1.6 6.4 0.00 0.00 0.00 56 1020.2
20260503150400 20 255 3.2 12.9 0.00 0.00 0.00 54 1020.3
20260503131345 19 257 8.0 22.5 0.00 0.00 0.00 59 1021.4
20260503130849 19 278 8.0 20.9 0.00 0.00 0.00 59 1021.5
20260503130346 20 271 6.4 20.9 0.00 0.00 0.00 58 1021.6
20260503110336 19 127 3.2 11.3 0.00 0.00 0.00 54 1022.0
20260503090322 16 170 1.6 8.0 0.00 0.00 0.00 66 1022.7
20260503081309 15 211 1.6 6.4 0.00 0.00 0.00 78 1022.7
20260503080806 15 102 1.6 6.4 0.00 0.00 0.00 78 1022.7
20260503072801 14 238 0.0 3.2 0.00 0.00 0.00 78 1022.7
20260503072304 14 185 0.0 3.2 0.00 0.00 0.00 79 1022.7
20260503071801 13 204 0.0 3.2 0.00 0.00 0.00 80 1022.8
20260503071301 13 200 1.6 4.8 0.00 0.00 0.00 82 1022.8
20260503070801 13 193 1.6 4.8 0.00 0.00 0.00 83 1022.8
20260503070304 13 158 1.6 6.4 0.00 0.00 0.00 83 1022.8
20260503060259 12 172 0.0 1.6 0.00 0.00 0.00 83 1022.8
20260503054800 12 150 0.0 1.6 0.00 0.00 0.00 85 1022.7
20260503054301 12 139 0.0 1.6 0.00 0.00 0.00 85 1022.7
20260503053302 11 148 0.0 0.0 0.00 0.00 0.00 85 1022.6
20260503052800 11 165 0.0 0.0 0.00 0.00 0.00 86 1022.6
20260503052257 11 165 0.0 0.0 0.00 0.00 0.00 84 1022.6
20260503051800 11 165 0.0 0.0 0.00 0.00 0.00 82 1022.6
20260503051301 11 157 0.0 0.0 0.00 0.00 0.00 82 1022.5
20260503050755 11 112 0.0 0.0 0.00 0.00 0.00 84 1022.5
20260503050257 11 113 0.0 1.6 0.00 0.00 0.00 84 1022.3
20260503045757 11 131 0.0 1.6 0.00 0.00 0.00 84 1022.3
20260503045255 11 117 0.0 0.0 0.00 0.00 0.00 86 1022.3
20260503044756 10 112 0.0 0.0 0.00 0.00 0.00 87 1022.2
20260503044254 10 112 0.0 0.0 0.00 0.00 0.00 88 1022.2
20260503043751 10 117 0.0 0.0 0.00 0.00 0.00 89 1022.3
20260503043244 9 129 0.0 0.0 0.00 0.00 0.00 92 1022.3
20260503042738 9 129 0.0 0.0 0.00 0.00 0.00 92 1022.3
20260503042241 9 129 0.0 0.0 0.00 0.00 0.00 93 1022.2
20260503041739 9 130 0.0 0.0 0.00 0.00 0.00 93 1022.2
20260503041239 9 129 0.0 0.0 0.00 0.00 0.00 93 1022.2
20260503040739 9 129 0.0 0.0 0.00 0.00 0.00 92 1022.1
20260503040239 9 129 0.0 0.0 0.00 0.00 0.00 92 1022.1
20260503035740 9 130 0.0 0.0 0.00 0.00 0.00 92 1022.2
20260503035236 9 165 0.0 0.0 0.00 0.00 0.00 91 1022.2
20260503034733 9 166 0.0 0.0 0.00 0.00 0.00 91 1022.2
20260503034232 9 166 0.0 0.0 0.00 0.00 0.00 91 1022.2
20260503033230 9 114 0.0 0.0 0.00 0.00 0.00 91 1022.1
20260503032730 9 114 0.0 0.0 0.00 0.00 0.00 90 1022.1
20260503032228 9 121 0.0 0.0 0.00 0.00 0.00 90 1022.1
20260503031728 9 131 0.0 0.0 0.00 0.00 0.00 90 1022.2
20260503031226 9 129 0.0 0.0 0.00 0.00 0.00 90 1022.2
20260503030723 9 124 0.0 0.0 0.00 0.00 0.00 89 1022.3
20260503030222 9 128 0.0 0.0 0.00 0.00 0.00 89 1022.2
20260503025723 10 168 0.0 1.6 0.00 0.00 0.00 88 1022.3
20260503024720 10 166 0.0 0.0 0.00 0.00 0.00 86 1022.3
20260503024216 10 135 0.0 0.0 0.00 0.00 0.00 82 1022.2
20260503023714 10 135 0.0 0.0 0.00 0.00 0.00 82 1022.2
20260503023212 10 120 0.0 0.0 0.00 0.00 0.00 82 1022.2
20260503022714 10 115 0.0 0.0 0.00 0.00 0.00 82 1022.1
20260503022211 10 115 0.0 0.0 0.00 0.00 0.00 82 1022.2
20260503021707 10 120 0.0 0.0 0.00 0.00 0.00 83 1022.2
20260503021207 10 109 0.0 0.0 0.00 0.00 0.00 83 1022.1
20260503020207 10 109 0.0 0.0 0.00 0.00 0.00 85 1022.3
20260503015700 10 109 0.0 0.0 0.00 0.00 0.00 86 1022.2
20260503015200 10 112 0.0 0.0 0.00 0.00 0.00 86 1022.2
20260503014659 10 111 0.0 0.0 0.00 0.00 0.00 87 1022.2
20260503014159 10 111 0.0 0.0 0.00 0.00 0.00 87 1022.3
20260503013701 10 122 0.0 0.0 0.00 0.00 0.00 88 1022.2
20260503013158 10 125 0.0 0.0 0.00 0.00 0.00 87 1022.3
20260503012159 10 130 0.0 0.0 0.00 0.00 0.00 87 1022.5
20260503011657 10 109 0.0 0.0 0.00 0.00 0.00 86 1022.5
20260503011157 10 127 0.0 0.0 0.00 0.00 0.00 87 1022.5
20260503010656 10 128 0.0 0.0 0.00 0.00 0.00 85 1022.6
20260503010200 10 125 0.0 0.0 0.00 0.00 0.00 86 1022.6
20260503005157 10 134 0.0 0.0 0.00 0.00 0.00 84 1022.7
20260503004158 10 136 0.0 0.0 0.00 0.00 0.00 84 1022.8
20260503003659 10 160 0.0 1.6 0.00 0.00 0.00 84 1022.8
20260503003200 10 137 0.0 3.2 0.00 0.00 0.00 84 1022.9
20260503002158 10 126 1.6 4.8 0.00 0.00 0.00 84 1023.0
20260503001657 10 162 0.0 3.2 0.00 0.00 0.00 83 1023.0
20260503001159 11 139 0.0 1.6 0.00 0.00 0.00 82 1023.1
20260503000657 11 140 0.0 1.6 0.00 0.00 0.00 81 1023.0
20260503000156 11 142 0.0 0.0 0.00 0.00 0.00 80 1023.1
20260502235656 11 121 0.0 0.0 0.00 0.00 0.00 80 1023.1
20260502235159 11 130 0.0 1.6 0.00 0.00 0.00 80 1023.2
20260502234657 11 122 0.0 3.2 0.00 0.00 0.00 81 1023.2
20260502234157 11 113 0.0 3.2 0.00 0.00 0.00 83 1023.2
20260502233658 11 108 0.0 1.6 0.00 0.00 0.00 83 1023.3
20260502233155 11 115 0.0 3.2 0.00 0.00 0.00 82 1023.3
20260502232656 11 94 0.0 6.4 0.00 0.00 0.00 81 1023.4
20260502231655 11 96 0.0 3.2 0.00 0.00 0.00 77 1023.4
20260502231155 11 131 0.0 3.2 0.00 0.00 0.00 75 1023.5
20260502230654 11 115 0.0 1.6 0.00 0.00 0.00 73 1023.5
20260502230156 12 141 0.0 0.0 0.00 0.00 0.00 71 1023.5
20260502225657 12 34 0.0 0.0 0.00 0.00 0.00 70 1023.5
20260502225155 12 34 0.0 0.0 0.00 0.00 0.00 69 1023.5
20260502223651 12 32 0.0 0.0 0.00 0.00 0.00 68 1023.6
20260502223152 12 32 0.0 0.0 0.00 0.00 0.00 66 1023.5
20260502222651 12 32 0.0 0.0 0.00 0.00 0.00 66 1023.4
20260502221151 12 32 0.0 1.6 0.00 0.00 0.00 67 1023.5
20260502220646 12 32 0.0 1.6 0.00 0.00 0.00 68 1023.4
20260502220145 12 32 0.0 0.0 0.00 0.00 0.00 68 1023.5
20260502215646 12 32 0.0 0.0 0.00 0.00 0.00 69 1023.6
20260502215143 12 32 0.0 0.0 0.00 0.00 0.00 69 1023.6
20260502214643 12 119 0.0 0.0 0.00 0.00 0.00 68 1023.6
20260502214142 12 119 0.0 0.0 0.00 0.00 0.00 68 1023.6
20260502213640 12 119 0.0 1.6 0.00 0.00 0.00 68 1023.5
20260502213137 12 117 0.0 3.2 0.00 0.00 0.00 68 1023.6
20260502212637 12 12 0.0 3.2 0.00 0.00 0.00 67 1023.5